EW5822 Weather Reports


Display with metric or nautical units.
time (UTC)temp
F
wind
direction
speed
MPH
gust
MPH
rain 1hr
in
rain 24hr
in
rain mn
in
humidity
%
barometer
mb
20260506204503 62 41 2.0 5.0 0.00 0.01 0.00 38 1016.9
20260506203603 61 4 3.0 7.0 0.00 0.01 0.00 36 1017.1
20260506202703 60 246 3.0 7.0 0.00 0.01 0.00 35 1017.2
20260506201803 61 240 5.0 9.0 0.00 0.01 0.00 34 1017.4
20260506200903 61 217 5.0 10.0 0.00 0.01 0.00 35 1017.5
20260506200003 60 207 5.0 8.0 0.00 0.01 0.00 38 1017.6
20260506195614 60 204 6.0 10.0 0.00 0.01 0.00 37 1017.7
20260506194503 59 252 5.0 8.0 0.00 0.01 0.00 37 1017.8
20260506193603 61 228 6.0 12.0 0.00 0.01 0.00 34 1017.8
20260506192916 60 243 7.0 15.0 0.00 0.01 0.00 37 1017.7
20260506191803 60 241 3.0 7.0 0.00 0.01 0.00 38 1017.8
20260506190903 60 295 2.0 9.0 0.00 0.01 0.00 37 1017.8
20260506190004 60 274 6.0 12.0 0.00 0.01 0.00 39 1017.8
20260506185403 59 264 6.0 11.0 0.00 0.01 0.00 40 1017.8
20260506184503 58 306 6.0 12.0 0.00 0.01 0.00 38 1017.9
20260506183814 59 315 6.0 12.0 0.00 0.01 0.00 38 1017.9
20260506182703 58 7 3.0 10.0 0.00 0.01 0.00 42 1017.8
20260506181803 57 152 2.0 7.0 0.00 0.01 0.00 44 1017.9
20260506180903 57 221 5.0 12.0 0.00 0.01 0.00 41 1018.0
20260506180213 57 52 4.0 11.0 0.00 0.01 0.00 43 1018.1
20260506175615 56 23 7.0 12.0 0.00 0.01 0.00 40 1018.1
20260506174503 56 292 3.0 10.0 0.00 0.01 0.00 43 1018.2
20260506173815 57 22 1.0 4.0 0.00 0.01 0.00 46 1018.2
20260506172917 56 322 7.0 14.0 0.00 0.01 0.00 43 1018.4
20260506171803 56 284 3.0 9.0 0.00 0.01 0.00 45 1018.5
20260506171117 56 272 5.0 10.0 0.00 0.01 0.00 47 1018.6
20260506170214 56 325 4.0 11.0 0.00 0.01 0.00 47 1018.6
20260506165404 56 188 5.0 10.0 0.00 0.01 0.00 50 1018.7
20260506164504 56 173 4.0 10.0 0.00 0.01 0.00 51 1018.8
20260506163603 55 267 4.0 8.0 0.00 0.01 0.00 54 1018.7
20260506162912 55 261 3.0 8.0 0.00 0.01 0.00 53 1018.8
20260506162015 54 241 3.0 9.0 0.00 0.01 0.00 58 1018.8
20260506160903 54 280 4.0 8.0 0.00 0.01 0.00 61 1018.7
20260506160214 53 288 4.0 9.0 0.00 0.01 0.00 65 1018.7
20260506155404 52 252 4.0 9.0 0.00 0.01 0.00 67 1018.8
20260506154503 52 229 2.0 6.0 0.00 0.01 0.00 69 1018.6
20260506153603 51 212 3.0 7.0 0.00 0.01 0.00 69 1018.6
20260506152703 51 220 3.0 6.0 0.00 0.01 0.00 71 1018.6
20260506151803 50 222 4.0 8.0 0.00 0.01 0.00 70 1018.8
20260506150903 50 241 3.0 6.0 0.00 0.01 0.00 72 1018.8
20260506150215 50 265 4.0 8.0 0.00 0.01 0.00 72 1018.8
20260506145617 50 255 4.0 8.0 0.00 0.01 0.00 72 1018.9
20260506144503 50 247 4.0 11.0 0.00 0.01 0.00 74 1018.6
20260506143603 49 268 4.0 8.0 0.00 0.01 0.00 75 1018.5
20260506142914 49 263 2.0 6.0 0.00 0.01 0.00 76 1018.5
20260506141803 48 280 3.0 7.0 0.00 0.01 0.00 77 1018.3
20260506140903 48 293 4.0 7.0 0.00 0.01 0.00 77 1018.2
20260506140216 47 305 3.0 6.0 0.00 0.01 0.00 78 1018.2
20260506135403 47 314 4.0 6.0 0.00 0.01 0.00 79 1018.3
20260506134503 47 315 4.0 6.0 0.00 0.01 0.00 79 1018.3
20260506133817 46 317 4.0 5.0 0.00 0.01 0.00 79 1018.3
20260506132914 46 318 5.0 6.0 0.00 0.01 0.00 79 1018.3
20260506131803 46 317 5.0 8.0 0.00 0.01 0.00 80 1018.1
20260506131114 46 317 5.0 7.0 0.00 0.01 0.00 80 1018.0
20260506130003 46 134 2.0 4.0 0.00 0.01 0.00 81 1017.6
20260506125403 46 134 0.0 2.0 0.00 0.01 0.00 81 1017.5
20260506124503 46 134 0.0 2.0 0.00 0.01 0.00 79 1017.4
20260506123813 46 134 0.0 2.0 0.00 0.01 0.00 79 1017.3
20260506122703 46 134 0.0 1.0 0.00 0.01 0.00 79 1017.0
20260506121803 46 134 0.0 1.0 0.00 0.01 0.00 77 1016.9
20260506121115 46 134 0.0 1.0 0.00 0.01 0.00 77 1016.4
20260506120217 46 134 0.0 2.0 0.00 0.01 0.00 76 1016.3
20260506115614 45 134 1.0 3.0 0.00 0.01 0.00 75 1016.3
20260506114716 45 134 2.0 3.0 0.00 0.01 0.00 75 1016.1
20260506113603 45 134 2.0 3.0 0.00 0.01 0.00 75 1015.7
20260506112916 46 134 2.0 3.0 0.00 0.01 0.00 75 1015.8
20260506112013 46 134 3.0 4.0 0.00 0.01 0.00 75 1015.6
20260506110903 46 134 2.0 4.0 0.00 0.01 0.00 74 1015.6
20260506110213 46 134 1.0 3.0 0.00 0.01 0.00 73 1015.4
20260506105614 46 134 2.0 3.0 0.00 0.01 0.00 73 1015.4
20260506104503 46 133 3.0 4.0 0.00 0.01 0.00 73 1015.6
20260506103603 46 132 2.0 3.0 0.00 0.01 0.00 73 1015.3
20260506102916 46 132 1.0 2.0 0.00 0.01 0.00 74 1015.3
20260506101803 46 132 3.0 5.0 0.00 0.01 0.00 72 1015.3
20260506101116 46 132 5.0 7.0 0.00 0.01 0.00 73 1015.3
20260506100213 47 124 6.0 8.0 0.00 0.01 0.00 72 1015.3
20260506095403 48 95 2.0 7.0 0.00 0.01 0.00 68 1015.7
20260506094503 48 84 2.0 3.0 0.00 0.01 0.00 66 1015.9
20260506093814 48 83 2.0 5.0 0.00 0.01 0.00 63 1016.0
20260506092917 48 14 2.0 6.0 0.00 0.01 0.00 61 1015.9
20260506092014 48 7 5.0 12.0 0.00 0.01 0.00 61 1015.9
20260506090903 48 334 5.0 13.0 0.00 0.01 0.00 64 1015.9
20260506090214 48 318 5.0 13.0 0.00 0.01 0.00 68 1016.0
20260506085615 49 200 2.0 6.0 0.00 0.01 0.00 64 1016.1
20260506084713 48 296 5.0 9.0 0.00 0.01 0.00 64 1015.9
20260506083815 48 26 3.0 9.0 0.00 0.01 0.00 69 1015.6
20260506082703 49 360 9.0 16.0 0.00 0.01 0.00 64 1015.4
20260506081803 49 3 8.0 18.0 0.00 0.01 0.00 62 1015.3
20260506080903 48 84 3.0 8.0 0.00 0.01 0.00 67 1015.1
20260506080215 48 125 2.0 8.0 0.00 0.01 0.00 76 1015.1
20260506072913 46 308 4.0 7.0 0.00 0.01 0.00 82 1015.0
20260506071804 46 295 4.0 5.0 0.00 0.01 0.00 82 1014.8
20260506071113 47 288 3.0 5.0 0.00 0.01 0.00 81 1014.9
20260506061803 47 136 1.0 2.0 0.00 0.01 0.00 77 1014.1
20260506061113 47 136 0.0 2.0 0.00 0.01 0.00 77 1014.1
20260506051114 47 126 2.0 3.0 0.00 0.01 0.00 79 1013.3
20260506044715 47 122 4.0 5.0 0.00 0.01 0.01 79 1013.4
20260506043813 48 121 5.0 7.0 0.00 0.01 0.01 78 1013.4
20260506042703 48 118 7.0 8.0 0.01 0.01 0.01 77 1013.2
20260506041803 48 110 8.0 10.0 0.01 0.01 0.01 75 1013.3
20260506040903 49 92 7.0 9.0 0.01 0.01 0.01 72 1013.7
20260506040217 49 103 7.0 14.0 0.01 0.01 0.01 70 1013.8
20260506035614 49 101 6.0 14.0 0.01 0.01 0.01 70 1014.0
20260506034503 50 56 6.0 13.0 0.01 0.01 0.01 68 1014.4
20260506033813 50 47 7.0 13.0 0.01 0.01 0.01 66 1014.5
20260506032703 51 344 16.0 24.0 0.00 0.00 0.00 64 1014.6
20260506031803 53 325 14.0 26.0 0.00 0.00 0.00 55 1014.1
20260506030903 54 337 13.0 18.0 0.00 0.00 0.00 51 1013.7
20260506030213 54 316 11.0 19.0 0.00 0.00 0.00 49 1013.6
20260506025403 53 301 5.0 7.0 0.00 0.00 0.00 55 1013.7
20260506024503 52 315 6.0 8.0 0.00 0.00 0.00 55 1013.3
20260506023603 53 332 7.0 10.0 0.00 0.00 0.00 54 1013.0
20260506022916 53 348 8.0 10.0 0.00 0.00 0.00 53 1012.8
20260506022014 54 8 8.0 10.0 0.00 0.00 0.00 52 1012.6
20260506021116 54 14 11.0 18.0 0.00 0.00 0.00 51 1012.3
20260506020004 54 18 13.0 19.0 0.00 0.00 0.00 51 1011.9
20260506015403 54 14 16.0 22.0 0.00 0.00 0.00 52 1011.7
20260506014712 54 355 15.0 22.0 0.00 0.00 0.00 51 1011.8
20260506013815 54 14 9.0 22.0 0.00 0.00 0.00 52 1011.5
20260506012917 54 331 7.0 9.0 0.00 0.00 0.00 57 1011.4
20260506012014 54 329 6.0 8.0 0.00 0.00 0.00 58 1011.4
20260506010903 54 328 5.0 8.0 0.00 0.00 0.00 58 1011.4
20260506010003 54 325 5.0 6.0 0.00 0.00 0.00 56 1011.3
20260506005615 54 322 5.0 8.0 0.00 0.00 0.00 56 1011.3
20260506004713 55 327 7.0 9.0 0.00 0.00 0.00 55 1011.4
20260506003603 55 329 8.0 11.0 0.00 0.00 0.00 53 1011.2
20260506002703 56 328 10.0 14.0 0.00 0.00 0.00 53 1011.2
20260506001803 55 316 8.0 13.0 0.00 0.00 0.00 53 1011.4
20260506000903 55 331 7.0 10.0 0.00 0.00 0.00 56 1011.2
20260506000215 56 334 9.0 12.0 0.00 0.00 0.00 53 1011.2
20260505235403 55 332 10.0 14.0 0.00 0.00 0.00 53 1011.1
20260505234713 56 335 11.0 14.0 0.00 0.00 0.00 52 1011.0
20260505233603 56 359 12.0 17.0 0.00 0.00 0.00 51 1010.9
20260505232913 56 341 11.0 17.0 0.00 0.00 0.00 52 1010.6
20260505232015 56 8 11.0 15.0 0.00 0.00 0.00 50 1010.7
20260505231113 57 354 11.0 15.0 0.00 0.00 0.00 48 1010.7
20260505230215 56 342 13.0 17.0 0.00 0.00 0.00 49 1010.8
20260505225617 56 337 13.0 16.0 0.00 0.00 0.00 50 1010.7
20260505224714 56 341 13.0 17.0 0.00 0.00 0.00 48 1011.0
20260505223816 56 340 12.0 17.0 0.00 0.00 0.00 48 1011.0
20260505222703 57 12 14.0 18.0 0.00 0.00 0.00 47 1010.9
20260505221803 56 344 13.0 18.0 0.00 0.00 0.00 49 1011.0
20260505221113 56 359 13.0 17.0 0.00 0.00 0.00 49 1011.2
20260505220003 56 353 11.0 16.0 0.00 0.00 0.00 50 1011.2
20260505215403 56 354 12.0 15.0 0.00 0.00 0.00 51 1011.3
20260505214504 56 354 11.0 15.0 0.00 0.00 0.00 51 1011.4
20260505213603 56 346 11.0 15.0 0.00 0.00 0.00 52 1011.3
20260505212914 55 356 10.0 14.0 0.00 0.00 0.00 53 1011.4
20260505212017 55 350 12.0 16.0 0.00 0.00 0.00 52 1011.5
20260505210903 55 7 15.0 18.0 0.00 0.00 0.00 53 1011.9
20260505210216 55 4 15.0 20.0 0.00 0.00 0.00 54 1011.8
20260505205613 55 348 14.0 20.0 0.00 0.00 0.00 56 1011.8